FENGYUN 1C DEB, 31945

Orbit data source: Space-Track

FENGYUN 1C DEB, 31945 is space debris in SSO originally from a launch on Mon, 10 May 1999 UTC launched from the Taiyaun Space Center, China (TSC). Fengyun 1C debris stems from the Chinese weather satellite Fengyun-1C, which was intentionally destroyed by a Chinese anti-satellite missile in 2007. This event dramatically increased the amount of space debris, with thousands of trackable fragments posing hazards to satellites and human spaceflight. The Fengyun 1C debris cloud has become a focal point in discussions about space sustainability and the need for international regulations to prevent the creation of new debris.

Loading next visibility...
Identifier
31945, 1999-025CMW
Orbit
SSO
Country
Flag of CNCN / PRC
Related business
Manufacturer
Unknown
Mission
Spacecraft
Bus & Motor
Unknown
Mass
Unknown
Launch date (UTC)
1999-05-10 (27 years ago)
Launch vehicle
Unknown
Launch site
Taiyaun Space Center, China (TSC)
Object type
Payload
Rocket body
Debris
Shape & HBR
Unknown shape, 0.1 m
Radar Cross Section
Small (<0.1 m²)

Expand to show TLE details & history
Last TLE update: 18 hours ago

TLE from 18 hours ago
0 FENGYUN 1C DEB
1 31945U 99025CMW 26237.68271888  .00001968  00000-0  89095-3 0  9993
2 31945  98.9527 322.7727 0057646 272.9935  86.4646 14.22322671988323
Epoch: 2026-08-25T16:23Z
TLE epoch observation values (Epoch: 2026-08-25T16:23:06.911Z)
Latitude
-0.00004°
Longitude
103.04735°
Altitude
818.098 km
Speed
7.445 km/s
True Right ascension
21h 31m 05s
True Declination
0° 00' 00"
Sunlit
Object was in full shadow at epoch
Visualization orbit readout
Latitude
Unknown
Longitude
Unknown
Altitude
Unknown
Speed
Unknown
Apparent Right ascension
Unknown
Apparent Declination
Unknown
Sunlit
N/A
Visualization observer readout
Local Sidereal Time
01:12:34
Azimuth
Unknown
Elevation
Unknown
Doppler factor
Unknown
Orbital elements
Apogee altitude
856.139 km
Perigee altitude
773.212 km
Semi-major axis
7,192.813 km
Eccentricity
0.00576
Inclination
98.9527°
RAAN
322.7727°
Arg. of periapsis
272.9935°
True anomaly
87.1242°
Mean anomaly
86.4646°
Eccentric anomaly
86.79437°
Mean motion
3.55791 °/min
Orbital period
101.18 mins
BSTAR
0.00089095
Loading maneuver chart data...
Computing Atmospheric mass density...
Loading historical data...
Loading historical data...
Loading historical data...
Loading historical data...
Loading historical data...
Loading historical data...
Loading historical data...

Documentation

Showing up to 5 results
|